Wind_Speed
17 16 15 15 15 15 14 14 13 13 13 12 11 11 12 11 11 12 12 12 12 13 12 12 12 12 13 12 11 7 4 2 4 8 11 11 10 9 7 8 10 14 16 15 14 12 11 10 8 7 7 9 12 13 10 8 6 3 0 2 2 2 3 4 5 5 4 3 5 8 10 6 5 6 6 5 4 5 7 8 9 12 17 20 29 36 34 34
18 17 16 15 15 14 14 14 13 13 12 12 11 11 11 10 10 11 11 11 12 12 12 12 11 12 12 12 11 7 3 2 5 10 12 10 11 11 9 10 12 14 16 14 13 12 11 8 6 6 10 11 9 8 8 8 8 5 1 2 2 3 3 4 6 7 6 5 8 9 11 9 10 10 8 4 3 6 7 6 8 10 15 25 34 36 35 36
18 17 16 15 14 14 13 13 13 13 12 11 11 10 10 10 10 10 11 11 12 12 12 11 11 12 12 12 11 8 5 3 6 10 11 10 13 13 12 12 13 15 14 11 10 10 9 6 5 8 12 10 8 8 6 7 8 6 3 1 3 4 3 5 9 9 10 12 12 10 11 10 12 12 8 6 4 5 5 6 7 9 20 34 38 38 38 37
19 18 16 15 14 13 13 13 13 12 12 11 10 10 10 9 9 10 11 11 11 11 11 11 11 11 11 11 10 8 7 3 3 8 10 10 12 14 14 14 14 15 13 10 8 9 10 10 11 12 11 9 7 9 7 8 8 5 6 2 4 6 5 7 11 12 14 18 16 12 11 9 12 11 8 11 7 1 5 11 12 11 22 35 38 39 38 36
21 19 17 15 14 13 13 12 12 12 11 11 10 10 10 9 9 10 10 10 11 10 10 10 10 10 11 11 10 7 5 3 3 9 11 11 13 13 14 15 14 14 13 11 10 12 12 12 13 13 9 6 6 6 6 14 11 4 5 5 9 9 5 9 13 14 16 18 17 13 10 10 12 8 10 13 6 5 12 15 17 15 20 29 35 38 38 37
22 20 18 16 14 13 12 12 12 11 11 10 10 10 10 9 9 9 10 10 10 10 10 10 9 9 10 11 10 6 2 1 5 10 11 13 14 12 12 14 15 14 14 13 13 12 12 11 9 10 7 3 7 7 8 16 15 3 3 6 14 12 7 13 16 15 17 17 15 13 11 14 12 5 12 14 4 9 18 19 21 19 17 24 30 33 36 36
22 21 20 17 15 13 12 11 11 11 10 10 10 10 9 9 9 9 10 10 9 9 9 9 9 9 10 11 9 4 4 3 9 11 11 14 14 12 11 14 16 16 15 14 14 12 10 9 11 12 8 5 7 11 10 15 15 5 2 7 13 13 13 17 18 17 19 18 16 15 14 15 11 6 13 13 5 10 20 21 24 22 18 21 25 27 29 33
23 22 21 18 15 13 12 11 10 10 10 10 10 9 9 9 8 9 9 10 9 8 8 9 9 8 9 10 7 5 7 5 10 11 12 16 14 11 11 15 16 15 15 14 12 10 10 11 16 15 8 7 6 9 13 11 9 6 3 9 11 11 17 19 19 19 18 16 16 16 14 14 15 12 13 11 6 13 22 23 24 23 21 20 21 23 23 27
23 23 22 19 16 14 12 11 10 9 9 9 9 9 9 8 8 8 9 9 9 8 8 9 9 9 8 8 6 5 5 3 8 10 13 16 14 11 11 14 16 16 16 13 10 10 11 12 15 14 10 6 1 3 14 9 5 9 9 12 10 9 17 18 17 20 17 15 16 13 8 12 15 12 7 9 12 17 23 23 22 22 22 21 20 21 19 22
24 24 23 20 17 14 12 11 10 9 9 9 9 9 9 8 8 8 9 9 8 7 7 8 9 9 9 7 3 1 2 4 7 10 13 15 14 12 11 13 15 17 16 13 12 13 15 15 16 18 14 5 7 3 11 9 7 12 13 14 13 12 16 18 16 19 17 14 18 13 6 11 16 9 3 10 16 18 23 23 22 22 22 23 21 21 19 19
25 24 23 21 18 15 12 10 10 9 9 8 8 9 9 8 8 8 9 8 8 7 7 8 9 9 9 8 3 4 3 4 7 10 14 15 15 13 11 12 14 16 17 15 14 14 16 19 20 18 9 6 12 8 2 9 12 15 17 12 9 12 12 14 14 16 14 10 21 17 5 9 13 6 6 16 18 17 21 21 21 23 23 25 23 21 21 20
26 24 23 22 19 16 13 11 9 9 9 8 8 8 8 8 8 8 8 8 8 7 7 8 9 9 9 10 9 7 4 6 6 9 14 15 14 11 9 10 11 13 15 16 13 9 12 18 21 18 9 10 10 5 9 1 13 15 16 10 4 6 6 10 11 15 13 8 22 16 6 5 6 6 14 21 21 17 19 20 20 22 23 24 24 22 22 22
28 25 23 22 20 17 13 11 9 9 9 8 8 8 8 8 8 8 8 8 8 7 7 8 9 9 8 10 10 8 9 9 7 9 13 14 13 10 10 10 10 12 13 14 12 7 10 16 20 21 17 14 6 1 11 5 13 12 7 5 5 5 2 9 10 15 11 8 21 14 5 5 4 9 20 22 22 19 19 20 20 21 23 24 24 23 22 23
29 26 23 22 20 17 14 11 9 9 9 8 8 7 8 8 8 8 8 8 7 6 6 7 8 8 8 9 6 11 13 12 12 13 13 14 15 13 12 12 11 12 11 11 11 9 13 18 20 20 16 13 10 8 9 2 10 8 3 3 4 5 4 9 8 12 6 8 18 9 3 6 4 11 22 23 23 21 20 20 20 21 23 22 22 21 20 22
30 28 24 22 21 18 14 12 10 9 8 8 8 7 8 9 8 9 9 8 7 6 6 6 8 8 9 10 5 13 14 14 18 17 13 14 17 17 16 14 13 11 10 11 11 12 14 18 18 16 15 15 12 7 4 3 3 3 3 1 1 3 4 7 6 11 7 6 12 6 3 4 3 11 21 24 25 22 21 20 19 22 22 21 18 17 18 19
31 29 24 22 22 19 15 12 10 8 8 8 8 8 9 9 9 9 9 9 8 7 6 5 6 6 7 7 6 14 16 17 18 17 15 13 16 21 18 14 14 14 14 14 13 14 16 17 18 16 15 12 6 2 3 3 1 3 4 3 3 3 3 3 5 12 10 4 6 5 4 3 3 11 20 26 27 24 22 20 20 22 21 21 16 13 16 16
31 29 25 22 22 19 15 12 10 8 8 8 8 9 9 9 10 10 10 9 8 7 7 6 7 8 7 6 5 13 20 18 15 16 18 14 15 19 17 16 18 18 20 20 19 22 22 16 12 11 8 5 1 2 3 3 3 4 2 3 4 5 5 4 3 9 10 6 6 4 6 6 5 11 20 25 27 24 21 20 21 22 21 20 17 14 15 15
31 30 27 23 22 20 16 12 10 8 7 8 8 9 10 10 11 11 11 10 8 6 6 8 7 5 6 10 8 12 19 19 16 16 18 16 15 16 17 19 19 18 19 20 19 21 19 11 5 4 4 2 1 3 2 7 5 6 6 4 4 4 5 6 4 8 11 7 7 6 6 7 6 11 18 23 25 22 21 21 21 23 22 20 19 18 17 15
30 30 28 24 22 20 16 12 10 8 7 8 8 10 10 10 10 9 9 9 8 5 4 7 8 2 5 10 10 9 14 18 18 17 19 19 18 17 18 20 21 19 13 9 8 9 9 5 2 3 5 5 6 7 8 13 10 9 11 8 8 6 4 7 5 8 14 8 7 9 7 7 9 10 14 19 23 21 20 20 20 22 22 22 21 20 19 16
30 29 28 25 22 20 16 12 10 8 7 7 9 9 7 7 5 2 7 12 13 10 11 12 13 14 16 15 12 9 9 16 19 19 20 20 20 19 19 18 17 15 8 3 4 6 4 4 4 6 10 10 10 9 11 16 13 8 12 9 10 8 6 9 6 8 14 9 7 10 7 9 12 11 13 18 20 17 17 17 18 21 23 24 24 22 21 18
29 29 28 25 22 20 16 11 9 7 6 7 7 8 6 4 3 3 9 13 14 15 18 20 18 22 25 21 15 11 8 13 20 21 18 19 20 16 15 14 8 5 5 4 5 7 3 4 8 11 13 13 14 13 10 11 6 6 11 9 8 8 8 10 8 8 12 8 6 9 9 10 12 11 13 17 16 14 18 20 19 22 24 26 25 23 23 19
29 28 27 26 22 20 16 10 8 6 6 6 5 6 5 3 2 6 9 10 18 21 18 17 19 24 26 22 15 12 14 11 18 22 19 19 21 14 9 9 5 3 4 4 4 6 4 5 14 14 12 13 14 15 10 6 1 3 7 8 7 6 4 5 5 7 9 5 4 9 11 10 10 10 12 15 16 17 24 27 26 26 25 26 26 24 24 22
28 27 27 25 23 20 15 10 7 6 5 3 4 6 6 4 4 9 9 8 16 22 18 15 19 23 25 22 15 13 15 12 15 20 21 19 20 19 11 6 6 5 3 3 3 4 4 8 15 13 11 13 12 10 5 1 3 1 6 7 5 7 5 3 5 8 9 4 5 9 7 5 6 6 7 14 19 20 25 28 28 30 29 28 28 26 26 25
28 27 26 25 23 20 15 11 8 6 5 2 5 9 7 5 5 11 11 6 8 16 18 16 17 22 25 21 12 11 16 17 17 19 22 20 18 18 12 7 5 4 6 7 8 7 9 15 16 11 9 9 6 5 1 2 3 2 4 7 7 11 9 7 5 7 7 2 6 9 5 1 6 6 6 10 11 14 21 24 23 27 30 29 28 27 27 26
28 27 26 24 22 19 15 12 8 7 6 3 7 10 9 6 6 8 8 4 4 9 12 11 14 21 26 19 13 15 14 17 20 20 23 23 19 13 9 9 6 4 9 9 8 6 11 20 19 11 9 6 2 4 3 4 1 4 1 7 12 15 11 6 9 9 6 2 6 9 6 2 4 6 9 6 5 9 15 18 19 24 25 25 27 27 28 26
27 26 26 24 21 18 15 11 8 8 6 4 7 10 11 9 7 5 2 3 3 5 3 7 11 14 19 16 17 16 8 12 20 21 23 24 22 15 7 6 6 7 8 6 4 3 8 17 14 8 8 3 1 3 3 5 3 3 3 6 10 14 10 9 11 10 6 4 8 9 6 4 3 5 9 7 8 10 11 12 16 23 23 24 29 29 28 25
27 26 25 24 22 19 17 13 10 10 7 5 6 7 7 6 7 4 0 4 4 5 3 8 9 9 13 14 17 13 2 8 17 20 25 25 23 20 10 4 5 7 5 1 3 4 5 10 10 5 3 0 1 3 3 6 7 2 6 4 7 9 10 11 11 8 4 3 6 5 3 5 5 5 7 9 11 10 9 9 12 19 24 26 30 29 27 25
27 26 25 23 22 19 17 15 11 10 8 8 8 5 4 3 5 2 2 2 3 4 4 6 7 8 11 14 20 17 6 7 11 16 26 25 21 18 10 6 5 5 4 1 4 7 2 4 9 3 2 1 3 5 5 5 6 6 7 4 5 7 8 11 10 6 3 4 5 5 2 5 3 3 5 9 10 10 11 11 10 16 23 26 29 30 28 26
26 25 25 23 21 18 16 15 12 9 8 10 8 4 3 2 2 2 3 0 4 2 3 6 7 8 11 12 19 22 13 6 5 13 25 26 24 17 9 11 8 6 7 4 5 9 6 8 10 2 2 3 6 6 6 5 5 6 6 2 2 1 2 5 7 5 2 3 6 9 6 4 2 2 5 7 9 11 12 11 11 17 24 26 29 30 28 26
25 24 24 22 20 18 16 15 12 9 8 10 8 5 5 3 1 4 2 3 4 1 3 6 7 9 11 8 10 15 12 5 4 12 19 23 26 17 7 10 9 3 5 4 6 10 12 15 13 4 4 7 6 5 5 6 5 3 1 2 5 4 3 3 2 4 3 2 6 11 10 6 2 4 6 8 11 14 12 8 9 14 20 25 28 29 28 27
25 23 22 22 20 17 17 14 10 8 8 7 7 4 3 1 3 3 2 3 3 1 2 4 5 8 12 9 7 9 7 4 4 11 11 11 14 8 2 4 5 1 3 5 6 7 9 9 7 5 9 7 2 2 3 1 2 3 4 3 4 4 5 5 4 3 3 5 6 10 13 9 5 6 9 11 9 11 13 10 11 13 17 25 27 28 28 27
25 22 20 21 18 15 16 12 7 7 7 4 3 2 1 2 1 2 3 4 2 2 2 3 4 5 11 10 6 6 5 3 5 8 8 5 6 4 3 4 4 1 3 5 5 5 5 6 5 4 8 7 4 1 4 6 5 5 4 5 4 3 3 2 3 1 3 7 5 8 12 6 4 5 10 14 8 9 14 14 16 17 20 26 27 27 27 26
25 22 20 18 16 14 13 10 8 8 6 3 2 2 4 3 2 6 4 3 2 3 2 3 5 5 10 8 5 6 5 4 5 6 7 7 5 5 6 6 7 5 3 4 2 3 4 7 5 2 4 6 6 3 2 3 3 3 1 3 4 1 1 1 4 1 1 6 4 5 7 1 4 4 6 12 9 12 17 18 22 25 26 28 28 27 26 25
24 22 20 17 13 12 11 9 11 11 6 5 5 4 4 2 4 5 4 3 3 6 4 1 3 5 9 8 5 6 4 3 6 6 5 5 4 4 5 6 7 6 2 1 1 2 1 6 4 4 4 5 6 6 7 4 2 1 3 5 4 3 4 3 3 2 3 4 5 3 3 1 2 4 4 9 11 15 20 20 23 26 28 29 26 24 25 25
23 21 20 15 11 10 9 8 13 14 10 7 5 4 3 5 4 1 2 3 3 5 7 6 4 6 6 6 5 6 6 4 6 6 5 6 5 5 5 5 7 7 4 2 2 3 3 5 8 8 7 8 6 6 6 6 3 3 1 5 1 4 5 2 3 4 4 1 4 3 1 1 3 4 4 8 13 13 18 19 20 21 24 26 23 22 25 26
22 19 16 13 9 6 6 8 12 15 14 9 5 1 4 4 3 2 1 3 4 5 10 11 4 7 4 4 4 7 7 5 6 5 4 5 5 6 6 5 8 8 7 5 3 2 1 5 7 6 7 8 7 6 5 5 3 1 2 2 4 5 7 3 1 1 3 3 2 0 2 1 1 4 5 8 11 9 11 14 16 19 21 23 22 23 25 26
21 17 13 8 5 5 6 7 10 15 15 9 4 3 5 3 3 3 4 7 10 8 7 7 2 5 5 5 5 7 6 3 5 5 4 4 4 6 7 6 9 11 10 9 5 4 4 6 7 3 6 6 7 8 4 4 7 3 1 4 3 1 4 3 1 3 4 3 1 0 4 3 2 1 2 5 9 7 7 9 12 16 19 20 21 24 25 25
22 18 12 6 2 5 4 5 11 15 12 6 1 4 3 3 4 6 9 11 12 8 5 4 4 5 5 5 6 7 6 4 5 5 4 4 4 7 9 6 9 13 15 15 7 3 4 4 8 2 5 3 2 5 2 3 2 4 3 4 2 2 1 2 1 0 1 1 0 3 1 2 3 3 4 6 9 9 7 8 9 12 16 17 19 23 25 24
22 16 10 5 2 3 2 7 14 14 8 3 2 3 3 4 8 13 16 13 9 6 5 6 5 3 3 5 5 5 7 6 7 5 4 4 4 7 11 8 8 12 16 16 8 3 2 3 5 5 3 3 2 2 2 5 4 3 3 2 2 3 3 1 0 2 2 1 1 1 3 2 3 5 8 10 10 11 9 8 9 12 17 17 19 23 25 24
17 10 6 2 5 4 5 12 14 10 4 2 4 3 4 5 9 17 21 15 8 5 5 6 5 2 2 4 3 4 5 7 8 7 5 6 5 5 9 10 6 8 13 14 9 4 1 3 2 6 2 3 1 1 5 4 0 3 4 3 2 1 1 1 1 1 3 2 3 3 2 4 4 4 7 10 10 10 11 9 8 11 16 18 20 24 25 23
11 5 4 4 9 6 9 14 8 3 2 3 3 2 5 7 8 17 23 20 13 9 10 9 6 4 3 2 3 3 3 5 8 7 4 6 6 4 8 14 10 4 8 9 7 5 3 2 3 2 4 2 4 5 6 7 6 6 4 3 3 2 2 3 2 4 1 4 4 4 3 5 5 2 6 8 8 8 10 10 8 10 18 20 22 25 25 22
11 4 2 9 10 7 9 9 2 2 3 3 4 4 8 8 8 13 19 19 12 10 12 9 5 4 2 2 4 4 3 4 7 7 5 7 9 6 10 19 18 8 7 7 5 5 3 3 4 0 1 2 7 6 1 4 4 5 4 4 4 4 4 5 2 3 1 2 1 4 2 5 6 3 4 8 11 12 14 15 11 12 21 23 23 25 24 22
14 7 6 15 14 10 8 2 3 3 3 5 6 10 13 10 8 10 12 13 9 6 7 6 3 3 2 2 4 3 3 3 7 9 7 6 10 10 11 18 18 7 4 6 4 2 1 3 3 2 3 3 6 7 5 4 5 5 2 1 2 3 4 6 4 3 2 1 1 4 1 4 5 4 2 8 13 14 15 18 17 16 21 25 24 23 21 19
18 11 6 15 18 14 5 1 2 2 4 7 7 11 15 13 11 12 10 9 8 4 5 5 3 2 2 3 4 5 2 1 5 8 6 3 4 3 4 12 16 6 2 4 4 2 1 1 3 3 4 5 6 7 7 6 5 2 2 3 2 4 5 4 1 3 3 1 3 5 2 5 5 2 3 8 11 11 12 19 23 22 22 23 22 20 18 16
15 8 4 5 19 21 10 5 4 2 3 6 7 10 12 10 11 15 14 12 11 8 5 5 5 4 4 5 6 6 3 3 4 4 4 3 2 6 7 9 12 7 5 9 10 7 4 2 3 5 2 2 1 1 2 2 2 2 3 4 3 5 6 2 1 4 1 3 2 5 4 5 4 2 5 6 9 10 11 18 22 22 23 22 20 18 16 13
7 2 6 6 9 17 13 8 5 4 3 5 6 8 8 5 7 14 14 10 11 10 6 6 6 4 4 5 6 7 2 2 4 2 2 2 1 3 7 16 16 10 11 16 14 7 4 2 4 6 6 5 5 5 5 2 0 3 6 7 4 3 6 5 3 2 3 2 1 3 7 5 4 5 5 5 8 9 9 14 17 20 22 21 19 17 14 12
4 1 4 7 3 5 6 7 7 5 6 7 4 6 9 7 7 12 12 8 9 10 5 5 3 1 3 5 5 5 4 3 3 1 1 2 2 2 8 15 13 10 11 9 6 6 5 2 3 6 5 5 7 6 4 1 2 1 4 7 7 3 4 5 2 3 4 4 3 6 7 9 8 7 7 7 8 8 8 13 18 21 22 20 18 16 14 12
3 3 4 5 3 2 3 7 9 8 10 10 5 5 8 9 7 7 8 10 13 10 5 5 6 4 6 6 3 3 4 6 5 2 3 3 3 2 4 7 4 7 10 4 3 5 5 2 4 4 1 1 1 0 2 3 1 1 2 5 7 6 4 2 3 5 6 4 4 6 9 9 8 6 7 9 9 10 13 19 22 23 21 19 18 17 15 12
3 3 5 7 4 4 7 12 13 10 8 7 5 4 7 8 8 7 7 8 10 8 5 5 9 9 9 8 5 2 2 3 4 3 2 3 3 3 3 3 2 4 8 4 3 3 4 1 3 3 3 4 5 5 6 6 5 5 5 6 7 7 7 4 4 6 4 4 4 8 8 4 4 5 8 11 13 17 20 21 21 21 20 18 17 17 15 14
5 3 7 10 7 7 10 12 10 7 6 5 3 4 7 7 7 8 8 6 7 8 7 7 10 10 9 10 7 4 4 2 4 6 4 3 2 3 3 1 1 2 5 4 2 4 4 2 3 4 5 4 5 5 7 7 6 6 8 8 5 4 5 3 1 2 3 6 8 11 9 2 3 5 8 12 16 18 17 16 18 19 18 17 17 17 16 15
3 3 4 6 5 6 8 9 7 5 4 4 3 5 7 7 8 9 8 6 5 7 8 10 12 9 6 8 7 6 7 4 5 7 8 12 7 4 4 3 4 3 3 2 2 3 4 1 1 5 5 4 4 4 6 6 7 7 8 8 4 5 4 2 2 1 5 9 9 10 8 4 6 4 7 11 14 15 14 16 18 18 16 16 17 17 16 16
1 2 1 1 2 4 6 6 6 5 4 4 7 10 10 9 10 8 6 6 8 12 15 14 11 7 5 7 8 11 15 12 9 8 3 16 16 13 11 9 8 7 3 2 2 1 3 3 1 4 3 4 4 3 5 6 7 5 4 4 1 4 5 3 4 4 5 9 8 6 6 6 5 5 7 7 9 10 13 16 16 16 16 16 16 16 17 17
Wind_Direction
328 323 318 315 315 314 316 316 316 315 317 321 324 325 329 335 334 332 334 335 333 333 340 341 341 341 336 335 342 356 352 292 209 201 189 168 160 159 155 153 161 167 166 165 172 185 189 195 192 186 218 230 233 231 213 209 197 183 78 96 129 172 186 177 182 168 132 149 172 186 183 153 131 159 151 112 103 106 114 130 134 134 148 159 157 156 154 155
333 327 320 316 313 313 314 314 315 316 317 320 323 323 327 331 331 329 331 332 331 333 338 339 341 340 335 335 340 352 359 285 235 209 184 167 168 163 161 165 166 176 183 184 189 197 198 198 184 209 229 216 216 211 197 193 183 188 163 88 186 187 176 167 149 144 141 151 160 174 181 156 143 155 145 115 97 115 111 115 131 132 143 154 157 158 156 157
338 331 324 318 314 312 312 311 314 315 316 320 320 321 324 327 326 326 329 329 330 332 334 337 341 338 334 335 338 344 347 298 248 212 182 166 168 163 161 172 178 182 190 191 195 207 219 239 244 257 247 221 213 202 191 184 187 205 172 95 239 177 131 159 142 148 160 146 144 158 168 158 150 150 137 132 122 122 130 136 144 130 140 152 158 160 159 160
343 337 328 321 315 311 309 309 310 312 315 318 317 319 320 322 323 323 325 326 327 329 332 334 339 338 332 332 336 340 347 339 227 193 179 171 166 163 161 171 181 183 190 192 200 219 237 257 257 265 254 232 218 197 197 197 189 187 173 184 213 154 122 176 153 143 153 144 142 146 151 158 157 155 145 139 124 141 186 163 157 137 142 153 159 162 162 163
348 342 334 325 317 312 309 307 307 309 313 315 315 315 317 319 319 320 322 323 324 327 328 330 337 337 329 330 334 336 359 28 173 174 171 173 171 168 165 171 179 189 197 202 215 224 237 251 262 278 263 219 186 181 216 207 191 175 203 184 166 156 129 175 160 145 152 143 140 140 146 161 159 166 168 154 145 198 183 167 161 147 142 154 160 164 166 167
350 346 339 331 321 314 308 305 305 306 308 312 311 311 314 314 314 317 317 317 320 324 324 327 336 334 327 326 332 330 353 51 179 174 167 170 176 174 171 178 189 201 208 213 221 227 242 250 266 278 265 229 175 189 238 210 194 195 226 175 163 162 141 166 164 156 158 145 143 151 154 156 154 182 185 176 188 186 176 167 165 161 149 152 159 165 168 171
351 349 344 336 326 316 309 305 303 303 304 306 306 308 311 309 312 313 311 312 316 321 319 322 329 332 326 323 332 331 302 237 176 173 173 173 178 177 175 189 197 206 211 218 223 229 248 261 271 262 253 263 199 197 226 205 192 195 190 178 173 159 147 162 163 159 163 158 156 155 149 156 165 177 183 194 220 177 172 167 167 172 168 157 160 166 171 175
352 351 347 341 332 321 311 306 300 299 299 299 301 304 306 306 308 306 305 308 312 317 314 316 322 326 326 325 338 322 298 250 185 182 183 178 176 177 181 193 197 205 214 219 228 242 263 277 272 264 248 233 211 194 200 189 190 216 192 174 178 158 153 162 162 161 167 166 160 153 154 171 176 164 173 199 191 164 168 168 169 176 181 173 168 171 172 177
353 352 350 345 337 326 315 307 299 295 294 294 298 299 303 304 303 302 302 303 309 312 307 311 315 320 322 323 338 319 296 216 188 186 184 181 175 174 184 192 193 205 218 222 235 248 259 270 264 267 264 229 320 160 175 167 196 212 188 162 168 163 157 160 162 166 170 170 163 155 167 181 171 154 162 182 158 159 168 169 171 175 184 185 181 182 179 180
354 352 352 348 341 332 319 308 300 294 291 290 292 294 301 300 298 298 297 300 303 303 304 306 309 318 317 313 336 306 208 165 184 184 182 182 176 174 183 192 196 209 223 229 245 255 262 277 285 288 283 276 352 9 171 184 207 187 162 148 160 163 157 159 166 174 174 173 172 165 179 189 173 151 144 167 156 160 168 170 175 177 184 187 188 190 191 189
355 353 352 350 345 336 323 312 301 294 289 286 287 291 297 297 295 294 294 296 295 298 300 300 309 314 310 305 262 206 193 172 180 185 185 184 183 183 182 195 209 222 232 238 253 271 282 290 299 301 297 327 334 333 229 192 174 155 137 121 150 152 146 159 166 179 178 180 185 175 157 179 176 172 170 167 164 165 168 171 179 183 186 188 190 195 198 199
356 353 352 351 348 340 330 317 303 293 287 283 283 286 291 293 290 289 290 289 289 294 296 301 311 310 309 296 254 213 175 172 182 190 192 191 191 191 191 207 225 236 242 251 267 291 300 294 296 304 312 326 329 351 346 44 140 137 128 109 125 118 128 167 165 182 186 190 185 165 99 163 186 189 171 167 170 168 165 169 179 187 190 190 192 196 200 203
357 354 352 352 350 344 334 321 308 295 287 283 281 284 287 289 288 288 286 283 284 285 293 304 308 309 307 285 249 191 165 176 199 207 197 199 199 201 212 220 231 243 249 262 279 301 304 297 296 302 306 312 314 280 326 351 135 139 123 107 131 99 157 189 172 180 187 190 178 152 93 204 230 175 166 167 172 168 163 168 177 186 191 192 194 198 202 205
358 355 353 353 352 347 338 327 313 298 290 285 282 282 283 285 285 284 282 278 279 278 290 302 305 311 294 273 224 176 177 184 208 213 198 202 207 211 218 222 234 239 244 263 284 303 304 299 297 300 301 295 297 305 323 52 140 140 81 33 125 119 210 208 182 170 170 200 183 145 89 206 227 171 165 168 174 170 165 170 178 183 187 191 193 198 203 205
359 356 353 353 353 349 341 330 318 305 293 285 281 281 281 284 284 282 280 273 272 272 283 295 300 313 297 281 216 179 190 196 208 210 202 207 212 217 219 219 234 242 250 264 282 305 302 294 291 293 294 291 295 311 343 88 116 130 122 355 120 125 201 219 200 176 165 200 184 130 94 202 221 181 169 170 174 171 169 172 179 182 187 193 194 197 198 201
359 357 353 352 353 351 344 334 324 311 297 286 282 280 278 282 283 282 278 271 270 268 275 284 285 306 304 281 203 181 197 207 208 206 206 217 221 222 222 226 243 255 263 264 271 282 281 282 284 281 282 288 296 327 355 28 114 192 167 170 180 147 179 217 219 196 171 157 184 133 130 191 223 188 174 173 175 172 170 173 179 184 189 194 195 195 192 195
359 357 354 351 352 351 346 339 328 317 303 291 283 280 281 284 286 286 281 276 274 266 268 266 272 295 281 247 206 191 200 206 211 207 205 222 235 226 228 238 246 258 264 265 266 266 266 268 273 280 280 283 323 71 359 313 212 212 173 128 185 181 166 177 216 201 170 154 194 155 152 189 190 180 177 178 179 175 173 174 180 186 188 193 195 193 190 192
359 357 355 351 351 351 348 342 332 321 307 294 284 284 286 291 295 287 280 277 273 270 269 250 246 303 265 222 212 204 201 198 202 204 205 225 240 234 238 241 250 267 266 261 262 256 255 255 251 290 299 273 246 117 182 250 212 181 178 136 176 191 176 195 197 179 166 164 189 171 180 200 177 173 181 184 182 177 178 179 184 189 191 195 196 192 190 190
358 357 355 351 350 350 349 345 336 323 310 298 290 294 298 307 306 284 278 274 256 250 263 230 202 229 271 230 222 229 218 205 202 204 208 223 234 237 243 244 253 268 264 253 267 253 237 240 291 300 274 250 222 183 199 239 232 183 179 158 160 180 203 215 206 170 162 156 186 188 188 184 173 181 186 186 184 180 181 183 186 192 195 195 194 192 191 192
357 356 354 351 349 348 348 348 339 327 315 301 302 310 313 322 324 295 304 288 265 264 274 263 242 251 271 266 259 273 241 208 207 209 206 215 226 233 238 241 252 262 255 230 267 271 230 220 248 239 244 253 247 226 213 237 243 175 160 158 158 172 205 215 213 181 162 151 195 197 183 178 179 188 186 181 181 178 179 184 186 190 194 195 195 194 193 194
354 354 353 351 348 347 346 346 342 329 316 309 316 320 315 335 352 342 326 303 289 290 280 273 268 262 269 273 266 276 270 218 212 212 201 206 218 227 229 227 240 260 256 259 274 286 274 233 249 236 237 247 254 257 239 232 245 130 145 156 156 177 209 212 200 179 165 158 193 186 175 187 186 187 186 176 176 181 182 185 188 189 192 195 197 199 199 198
351 352 352 349 346 346 342 341 340 325 317 317 321 320 328 1 331 314 325 303 296 298 286 275 271 264 265 265 255 262 278 246 213 210 202 203 211 214 206 202 216 242 260 285 307 304 301 253 255 249 243 244 247 253 243 222 288 89 134 140 159 193 211 229 208 171 167 169 186 177 176 193 190 183 185 179 178 187 187 186 187 187 186 191 195 198 199 199
348 349 350 347 345 343 338 334 329 316 312 315 345 353 355 356 319 322 323 291 290 292 281 264 258 258 259 255 244 248 257 235 207 205 199 199 204 204 195 185 213 232 252 253 231 261 270 253 256 256 248 241 241 246 237 228 294 228 133 130 176 200 173 218 225 179 176 176 162 165 165 185 183 173 190 191 185 187 190 189 188 186 186 190 194 195 196 198
345 346 347 346 342 340 337 326 313 303 296 306 18 9 358 340 338 341 328 291 283 288 277 254 243 248 246 240 236 243 240 220 205 198 191 194 198 198 203 200 199 229 239 231 222 229 246 255 262 272 263 241 231 247 182 139 271 284 138 138 173 197 193 196 183 160 169 150 136 136 97 143 179 169 194 201 193 189 189 188 187 189 191 191 193 195 197 201
342 343 343 344 339 336 335 323 306 305 308 353 24 19 23 19 4 344 329 317 281 283 281 245 226 235 233 232 242 241 228 206 200 194 187 195 198 190 208 212 192 235 241 236 241 239 252 261 264 267 259 240 197 248 211 154 287 329 192 169 177 190 198 172 137 135 151 172 172 148 111 223 211 183 191 190 191 196 188 184 187 190 191 189 190 194 198 203
339 339 339 341 337 332 331 324 305 301 315 3 9 17 33 34 17 340 321 19 298 258 254 200 198 219 220 227 237 226 213 199 201 199 191 197 204 196 202 211 199 232 237 235 249 233 249 259 258 245 241 241 56 276 236 138 90 333 238 188 175 179 180 160 143 145 164 192 195 175 136 172 213 200 196 180 180 197 192 187 190 188 188 188 190 194 198 202
335 336 335 337 338 331 327 324 302 292 300 311 324 1 26 32 27 3 166 22 298 223 161 174 182 192 193 203 208 192 180 205 198 202 198 197 204 200 203 223 206 231 237 192 259 240 239 264 272 264 252 338 74 269 242 135 118 249 243 180 149 156 158 161 156 164 186 151 174 194 112 139 194 210 192 176 178 195 201 197 197 190 188 190 192 194 195 197
332 334 330 332 336 328 321 318 301 291 281 268 286 336 17 27 34 46 117 30 259 187 131 170 175 181 180 183 190 190 211 188 174 206 204 199 201 194 201 228 203 238 261 120 260 263 240 276 276 270 37 317 207 231 246 149 138 226 234 181 151 156 153 155 160 181 184 117 156 209 122 123 215 223 165 172 178 194 207 202 202 196 191 191 193 194 193 194
329 331 326 326 331 323 313 311 300 288 259 251 269 301 329 329 6 52 90 219 245 189 136 164 160 180 183 173 187 202 215 184 158 200 196 196 202 195 205 227 219 261 267 204 238 272 272 264 261 203 105 240 219 229 234 157 156 223 216 159 82 131 164 145 154 165 125 116 182 200 168 121 223 221 151 173 192 200 207 203 201 199 194 192 192 193 194 195
325 327 324 322 325 319 309 309 298 272 248 249 258 277 296 286 23 53 97 239 257 230 133 157 167 176 175 167 194 208 211 209 184 178 179 188 197 200 214 220 214 250 278 250 245 264 269 271 274 261 215 214 204 232 220 170 181 206 137 54 26 11 1 38 96 107 100 260 224 194 173 129 160 219 184 191 202 194 188 189 198 200 195 192 192 192 193 196
322 323 321 318 319 313 305 310 301 263 247 253 258 271 293 292 70 92 194 275 296 232 133 162 185 167 167 173 197 206 205 226 177 155 168 186 192 206 250 208 211 225 309 291 271 273 279 281 282 244 224 205 148 287 280 279 178 113 81 69 36 352 6 19 357 44 118 258 260 186 169 147 159 219 213 210 208 183 176 181 187 190 193 191 190 191 194 194
320 318 316 314 310 301 297 303 290 257 255 261 260 253 109 69 40 201 240 329 341 213 170 190 212 171 173 181 190 199 189 198 187 160 165 169 171 203 207 190 189 177 280 264 272 309 301 275 270 240 223 191 124 331 311 341 21 71 64 72 65 333 357 15 274 252 185 253 268 162 155 162 212 231 207 202 200 178 181 181 177 179 185 187 187 190 193 193
318 315 312 308 301 291 288 283 247 228 242 229 155 106 93 94 227 227 245 311 310 299 337 199 222 174 164 176 196 203 186 184 201 184 173 164 165 207 228 216 175 156 229 240 280 329 308 288 280 256 243 195 150 148 251 315 23 72 99 110 100 132 101 251 250 248 226 270 301 124 126 138 280 291 208 192 183 174 179 178 174 176 180 182 184 187 188 188
316 315 312 303 295 288 282 265 227 209 207 188 147 93 94 167 237 237 241 255 269 287 305 218 224 174 166 185 195 184 173 193 195 177 166 159 161 209 237 237 199 170 186 276 290 203 234 300 271 197 224 197 165 177 181 157 113 192 189 134 127 161 156 196 205 161 215 260 322 31 73 98 224 291 256 170 150 157 168 172 171 173 176 176 178 182 183 184
315 315 310 300 293 285 272 245 219 205 190 168 125 89 156 216 246 232 235 277 285 283 310 305 221 179 186 206 205 187 173 186 192 171 164 170 178 201 205 218 212 184 157 185 249 208 197 255 244 220 197 174 178 201 171 115 88 267 169 87 86 189 150 151 185 180 184 208 346 8 23 237 198 314 343 119 129 147 156 160 164 164 169 171 171 176 182 184
316 315 307 296 291 276 249 231 215 202 186 158 113 131 212 225 234 212 269 326 314 311 327 316 222 170 202 216 222 216 190 176 183 174 185 192 192 204 200 202 203 188 169 177 229 251 221 272 262 218 180 182 188 183 159 132 150 269 62 109 247 184 134 116 255 293 77 89 340 24 112 312 342 350 2 104 124 137 140 150 162 162 166 172 171 174 180 182
321 322 316 306 285 240 225 224 206 192 179 153 131 211 227 243 241 259 318 324 312 307 324 322 237 184 200 192 217 219 185 162 191 190 202 207 215 215 208 211 203 193 182 180 209 239 213 278 292 179 166 224 207 171 175 160 144 125 164 209 246 64 99 103 108 354 33 90 277 1 143 176 149 4 327 114 126 138 142 151 161 164 169 175 177 178 179 179
328 328 332 338 254 216 217 202 185 177 162 139 193 238 233 249 263 293 303 304 307 310 318 309 256 215 189 184 220 205 162 158 205 207 198 199 233 216 196 205 215 207 193 182 196 251 188 248 297 249 156 230 235 155 217 300 116 136 182 182 101 66 337 356 98 164 32 117 266 9 13 188 164 175 185 159 151 156 161 158 157 169 178 181 184 184 179 177
329 325 335 355 176 189 180 165 167 162 140 119 231 241 244 258 272 281 284 286 289 290 288 275 254 224 176 190 217 201 172 172 188 203 201 193 232 223 197 195 218 215 196 179 183 253 170 156 290 289 148 134 10 83 195 287 332 38 50 22 53 142 170 216 180 155 138 159 131 54 330 275 221 204 186 181 176 165 164 168 169 178 181 179 183 182 177 174
329 324 332 318 167 152 140 149 152 145 123 178 209 227 268 276 278 276 276 276 270 260 263 265 268 286 232 212 217 209 192 176 179 197 207 192 210 237 208 199 225 219 188 176 180 212 225 136 234 293 356 91 16 224 177 191 177 59 53 20 5 23 104 131 7 66 120 128 131 136 245 262 252 218 184 185 184 173 171 174 182 183 173 168 169 171 172 169
340 331 319 190 165 152 144 145 148 141 135 233 225 233 262 262 274 277 277 276 269 259 257 259 257 240 218 225 242 222 191 181 190 197 203 198 201 232 213 205 219 210 165 175 185 179 197 160 160 300 2 47 254 245 196 179 161 132 133 167 158 101 84 99 339 316 85 118 140 145 193 259 261 213 182 187 184 180 174 168 176 176 163 158 157 157 160 159
352 340 170 165 174 189 159 143 184 205 171 250 237 238 262 261 264 271 276 280 276 262 257 253 251 246 208 195 232 223 186 193 204 203 204 203 201 215 215 204 205 195 148 167 191 180 176 115 106 188 252 227 264 279 210 167 146 110 125 180 163 126 111 121 192 260 32 49 71 111 142 255 264 251 205 187 173 172 170 160 150 153 156 155 153 151 154 156
340 321 175 170 183 196 174 144 303 216 218 271 253 255 262 260 265 271 278 280 273 269 269 260 261 277 242 202 227 227 202 200 212 210 204 210 213 220 218 199 193 187 124 150 174 187 85 81 84 311 300 299 305 329 16 59 67 61 21 291 129 139 139 139 169 176 112 59 74 78 64 261 271 275 191 158 156 157 156 147 137 137 146 149 149 152 158 163
332 315 207 181 189 196 193 224 245 224 262 270 266 265 259 251 256 260 263 269 264 270 283 270 269 275 268 282 264 236 206 186 229 216 194 216 228 213 199 177 164 145 92 159 168 141 74 72 91 67 352 336 343 351 353 3 30 51 290 324 46 100 96 92 110 77 58 237 138 112 204 249 262 274 97 116 129 129 135 141 141 143 148 150 153 159 167 172
338 320 306 202 191 198 215 219 211 246 274 277 288 280 266 256 255 256 256 259 262 262 258 261 281 296 302 312 289 261 213 168 235 230 168 171 88 63 60 96 111 107 125 141 138 128 124 119 106 114 139 233 255 317 293 308 331 312 307 331 15 77 67 43 58 71 55 253 114 123 196 252 265 186 112 110 119 121 136 146 149 154 157 161 165 170 177 183
359 320 340 351 192 204 234 261 289 307 287 298 300 285 286 295 292 290 286 267 261 269 259 255 282 308 320 325 305 292 297 198 235 263 109 141 105 86 82 82 82 89 119 128 126 113 96 99 117 131 154 181 191 216 230 186 179 308 324 329 327 57 75 83 89 98 189 178 37 205 181 172 213 184 139 138 137 134 147 152 153 157 160 167 175 178 185 190
16 345 3 3 304 245 285 319 347 339 298 306 298 275 300 314 311 311 309 296 297 304 293 266 284 315 293 312 316 301 324 335 295 286 88 69 66 138 106 92 89 100 110 111 111 101 84 87 145 146 162 187 189 208 248 43 114 262 322 327 320 349 69 91 142 216 171 101 321 252 169 153 198 194 159 169 163 148 154 155 156 161 165 173 179 180 185 192
356 333 2 3 312 290 351 324 322 321 309 311 296 268 302 312 306 309 312 311 318 332 345 300 297 294 274 286 302 294 333 347 330 278 175 142 106 73 60 62 76 114 109 71 21 99 103 146 199 165 130 290 167 106 4 30 43 286 320 311 310 318 326 302 223 195 155 144 230 211 157 164 206 200 174 180 168 150 155 158 162 169 173 177 180 182 189 200
352 318 328 346 324 285 305 304 304 309 310 313 303 284 298 301 300 314 328 325 319 327 349 307 297 309 307 301 303 295 318 343 314 281 206 173 143 111 59 6 344 92 98 79 19 75 97 176 216 128 65 357 359 11 11 11 346 327 323 301 297 298 289 272 217 191 147 130 160 142 133 167 219 195 176 173 159 150 154 160 166 172 174 176 181 187 196 208
29 22 331 336 327 301 310 316 317 314 309 314 305 289 302 305 315 332 335 325 312 317 333 324 312 318 314 311 315 289 252 235 273 258 197 143 115 132 123 176 234 43 63 80 30 36 80 211 240 93 67 333 340 5 3 6 1 344 329 314 315 330 327 334 242 212 77 84 110 115 108 119 237 184 151 146 146 143 148 160 168 172 176 182 189 197 207 220
57 70 347 331 314 317 335 333 327 318 300 308 311 310 322 326 330 333 317 292 294 317 329 326 320 320 315 322 331 304 288 308 317 280 195 164 165 161 145 161 159 121 69 84 66 46 86 152 283 74 66 302 311 6 4 11 23 8 335 319 1 51 33 8 351 37 113 117 113 108 118 184 224 180 122 129 140 142 154 169 174 178 185 192 200 208 218 229
14 155 103 35 288 316 347 332 319 319 295 316 337 328 319 317 320 326 319 307 317 327 327 320 318 330 339 326 318 311 312 321 345 346 205 172 161 143 137 141 141 138 134 92 80 106 113 101 114 100 88 277 279 50 51 31 19 351 295 253 152 99 111 106 41 44 114 127 123 137 179 198 184 140 128 143 152 152 161 168 173 183 191 199 210 219 228 233
Height
1516 1515 1514 1514 1513 1512 1512 1511 1511 1510 1510 1510 1509 1509 1508 1508 1507 1507 1506 1505 1504 1503 1503 1502 1501 1501 1500 1499 1499 1499 1498 1498 1498 1498 1498 1498 1498 1498 1497 1497 1498 1498 1498 1497 1498 1498 1499 1499 1500 1501 1502 1503 1503 1503 1503 1503 1504 1505 1508 1513 1515 1516 1514 1509 1509 1509 1508 1509 1509 1511 1512 1512 1514 1515 1514 1515 1515 1515 1514 1515 1515 1517 1518 1520 1522 1524 1526 1529
1515 1514 1513 1512 1512 1511 1511 1510 1510 1509 1509 1509 1508 1508 1507 1507 1506 1506 1505 1504 1504 1503 1502 1501 1501 1500 1499 1499 1498 1498 1498 1497 1497 1496 1496 1497 1497 1497 1496 1497 1497 1498 1497 1497 1497 1498 1498 1499 1500 1502 1502 1502 1502 1502 1502 1502 1503 1505 1507 1513 1513 1511 1507 1502 1503 1503 1504 1507 1508 1510 1511 1512 1513 1514 1515 1516 1517 1516 1515 1516 1516 1517 1518 1520 1523 1525 1526 1528
1514 1513 1512 1511 1510 1510 1510 1509 1509 1508 1508 1508 1507 1507 1506 1506 1505 1505 1504 1503 1503 1502 1501 1501 1500 1499 1499 1498 1497 1497 1497 1496 1496 1496 1496 1496 1496 1496 1496 1496 1496 1497 1497 1497 1498 1499 1499 1499 1500 1502 1502 1502 1502 1502 1502 1502 1502 1502 1506 1513 1510 1504 1502 1501 1501 1502 1503 1505 1507 1510 1511 1512 1513 1513 1515 1516 1518 1517 1516 1516 1516 1517 1518 1519 1522 1524 1526 1528
1513 1512 1511 1510 1509 1509 1508 1508 1507 1507 1507 1506 1506 1506 1505 1505 1504 1504 1503 1502 1502 1501 1500 1500 1500 1499 1498 1497 1497 1496 1495 1495 1494 1494 1495 1495 1496 1495 1495 1495 1495 1496 1496 1497 1498 1499 1499 1499 1500 1501 1502 1502 1501 1501 1501 1501 1501 1501 1504 1508 1504 1500 1502 1502 1500 1501 1503 1505 1507 1509 1511 1512 1513 1514 1515 1515 1519 1520 1517 1516 1516 1517 1518 1519 1521 1524 1526 1528
1512 1511 1510 1509 1508 1507 1507 1506 1506 1506 1506 1505 1505 1505 1504 1504 1503 1503 1502 1502 1501 1500 1500 1499 1499 1498 1497 1497 1497 1495 1496 1498 1495 1493 1494 1494 1495 1495 1494 1495 1495 1495 1496 1497 1497 1498 1499 1499 1499 1500 1500 1500 1501 1502 1499 1497 1499 1500 1500 1499 1498 1499 1502 1502 1501 1502 1503 1506 1508 1509 1511 1512 1513 1514 1514 1514 1517 1518 1515 1516 1516 1517 1519 1520 1522 1523 1525 1527
1512 1510 1509 1507 1506 1506 1505 1505 1505 1505 1504 1504 1504 1503 1503 1503 1502 1502 1501 1501 1500 1500 1499 1499 1498 1498 1497 1496 1496 1495 1496 1499 1495 1492 1494 1494 1494 1495 1494 1494 1494 1495 1495 1496 1496 1497 1498 1498 1499 1498 1497 1498 1500 1500 1496 1494 1497 1501 1499 1495 1496 1497 1499 1501 1501 1502 1503 1505 1507 1509 1509 1510 1513 1514 1514 1514 1514 1514 1514 1516 1516 1517 1519 1521 1523 1524 1525 1526
1511 1509 1508 1506 1505 1505 1504 1504 1504 1503 1503 1503 1503 1502 1502 1502 1501 1501 1500 1500 1499 1499 1498 1498 1498 1497 1496 1495 1495 1495 1495 1495 1492 1492 1494 1493 1494 1494 1494 1494 1494 1494 1494 1494 1496 1497 1498 1498 1498 1496 1496 1498 1497 1495 1493 1493 1495 1500 1500 1495 1496 1496 1497 1499 1501 1502 1503 1504 1505 1507 1509 1510 1512 1513 1513 1513 1513 1513 1514 1515 1516 1517 1519 1521 1522 1524 1525 1526
1510 1508 1507 1505 1504 1503 1503 1503 1502 1502 1502 1502 1502 1501 1501 1501 1500 1500 1499 1499 1499 1498 1498 1497 1497 1496 1496 1495 1495 1494 1493 1492 1492 1492 1493 1493 1494 1493 1493 1493 1493 1494 1493 1494 1495 1496 1497 1496 1496 1495 1496 1496 1493 1491 1490 1493 1496 1498 1499 1495 1496 1497 1497 1499 1501 1503 1503 1504 1505 1507 1508 1509 1509 1510 1511 1512 1512 1513 1514 1515 1517 1518 1519 1520 1522 1523 1524 1525
1510 1508 1506 1505 1503 1502 1502 1501 1501 1501 1501 1500 1501 1500 1500 1500 1499 1499 1498 1498 1498 1497 1497 1496 1496 1496 1496 1495 1495 1494 1492 1491 1491 1492 1492 1493 1493 1493 1493 1492 1493 1493 1492 1494 1494 1495 1495 1493 1493 1494 1494 1491 1490 1490 1489 1495 1498 1495 1495 1494 1495 1498 1498 1501 1502 1503 1504 1504 1505 1507 1508 1508 1509 1510 1512 1512 1512 1513 1514 1516 1517 1518 1519 1520 1521 1522 1523 1525
1509 1507 1505 1504 1502 1501 1500 1500 1500 1499 1499 1499 1499 1499 1499 1499 1498 1498 1497 1497 1497 1497 1496 1496 1495 1495 1495 1494 1495 1494 1491 1490 1491 1491 1492 1492 1493 1493 1492 1492 1493 1492 1492 1493 1492 1492 1492 1491 1490 1490 1490 1488 1487 1489 1489 1493 1494 1490 1492 1494 1495 1498 1498 1501 1503 1503 1505 1505 1505 1506 1508 1509 1509 1511 1514 1513 1512 1513 1514 1516 1517 1518 1519 1519 1520 1521 1522 1524
1509 1507 1505 1503 1501 1500 1499 1499 1498 1498 1498 1498 1498 1498 1498 1497 1497 1497 1496 1496 1496 1496 1495 1495 1494 1494 1494 1493 1494 1493 1490 1490 1491 1491 1492 1492 1492 1492 1492 1492 1492 1492 1492 1491 1491 1491 1490 1488 1488 1488 1488 1487 1486 1487 1486 1487 1489 1489 1492 1496 1498 1499 1500 1502 1503 1504 1504 1505 1504 1504 1507 1510 1511 1512 1512 1511 1512 1513 1514 1516 1517 1518 1519 1519 1520 1521 1522 1523
1508 1506 1504 1502 1501 1499 1498 1498 1497 1497 1497 1497 1497 1497 1496 1496 1496 1495 1495 1495 1495 1495 1494 1494 1494 1493 1493 1492 1492 1490 1489 1490 1491 1491 1492 1491 1492 1492 1492 1492 1492 1491 1491 1490 1490 1489 1489 1487 1487 1488 1489 1487 1487 1489 1487 1486 1490 1491 1491 1499 1505 1502 1503 1504 1501 1504 1503 1503 1503 1504 1513 1517 1514 1512 1510 1510 1512 1513 1514 1515 1516 1517 1518 1519 1520 1521 1521 1522
1508 1506 1503 1502 1500 1498 1498 1497 1496 1496 1496 1496 1496 1496 1496 1495 1495 1494 1494 1494 1494 1494 1493 1493 1492 1492 1492 1490 1488 1488 1489 1490 1491 1491 1491 1492 1492 1492 1492 1492 1491 1491 1490 1490 1489 1488 1488 1487 1487 1487 1487 1486 1487 1490 1489 1486 1491 1495 1494 1500 1508 1510 1511 1504 1500 1503 1502 1503 1501 1505 1523 1526 1514 1510 1509 1509 1511 1512 1514 1514 1515 1516 1517 1518 1519 1520 1520 1521
1508 1505 1503 1501 1499 1498 1497 1496 1496 1495 1495 1495 1495 1495 1494 1494 1494 1493 1493 1493 1493 1493 1493 1492 1491 1491 1490 1487 1486 1488 1488 1489 1490 1490 1490 1491 1491 1491 1491 1490 1490 1489 1489 1489 1488 1487 1486 1486 1486 1485 1485 1485 1484 1485 1488 1488 1492 1497 1500 1503 1509 1516 1515 1503 1500 1503 1503 1503 1499 1505 1524 1525 1513 1510 1509 1509 1510 1511 1513 1513 1514 1515 1516 1517 1518 1519 1519 1520
1508 1505 1503 1501 1499 1497 1496 1495 1495 1494 1494 1494 1493 1494 1493 1493 1493 1492 1492 1492 1492 1492 1492 1491 1490 1490 1489 1485 1484 1486 1486 1487 1488 1488 1489 1490 1490 1490 1489 1489 1488 1488 1488 1488 1486 1486 1485 1486 1486 1484 1483 1483 1483 1486 1491 1494 1496 1497 1507 1515 1512 1514 1514 1504 1499 1501 1503 1503 1499 1506 1523 1523 1513 1509 1508 1508 1510 1509 1511 1512 1513 1514 1515 1516 1516 1517 1518 1518
1508 1505 1503 1500 1498 1497 1495 1494 1494 1494 1493 1493 1493 1492 1492 1492 1492 1491 1491 1490 1491 1491 1491 1491 1490 1490 1489 1485 1483 1484 1484 1484 1484 1486 1488 1488 1488 1488 1488 1488 1487 1487 1487 1486 1485 1485 1486 1486 1484 1483 1482 1482 1484 1489 1495 1501 1504 1501 1505 1516 1515 1513 1516 1510 1502 1498 1499 1502 1502 1507 1518 1521 1513 1508 1507 1507 1508 1508 1509 1510 1511 1512 1513 1514 1515 1515 1516 1517
1507 1505 1502 1500 1498 1496 1495 1494 1493 1493 1493 1492 1492 1491 1491 1491 1491 1490 1490 1490 1491 1490 1490 1490 1489 1489 1486 1482 1482 1482 1481 1482 1484 1485 1486 1487 1487 1486 1488 1488 1486 1487 1486 1485 1486 1485 1486 1486 1485 1485 1483 1483 1484 1490 1503 1510 1511 1507 1504 1510 1512 1509 1513 1513 1506 1499 1498 1503 1505 1506 1512 1514 1509 1505 1506 1505 1506 1507 1507 1509 1509 1510 1512 1512 1513 1514 1514 1515
1507 1505 1502 1500 1498 1496 1494 1493 1492 1492 1492 1491 1491 1491 1490 1490 1490 1489 1489 1489 1489 1490 1490 1488 1489 1491 1486 1480 1480 1480 1480 1482 1483 1484 1485 1485 1486 1486 1487 1487 1486 1487 1486 1485 1485 1484 1486 1485 1484 1488 1487 1487 1488 1494 1508 1508 1502 1505 1505 1508 1510 1508 1511 1510 1505 1499 1498 1503 1507 1509 1511 1510 1507 1505 1505 1504 1505 1506 1506 1507 1509 1509 1510 1511 1512 1513 1513 1514
1507 1504 1502 1500 1497 1496 1494 1492 1492 1491 1491 1490 1490 1490 1489 1489 1488 1488 1488 1488 1487 1488 1488 1486 1486 1488 1484 1478 1479 1480 1480 1482 1482 1483 1484 1484 1485 1486 1486 1486 1487 1486 1486 1486 1485 1482 1485 1486 1489 1495 1493 1490 1488 1490 1497 1491 1486 1494 1496 1499 1506 1508 1509 1504 1498 1492 1494 1504 1509 1508 1509 1509 1509 1506 1504 1504 1504 1505 1507 1507 1508 1509 1509 1510 1511 1512 1513 1513
1506 1504 1502 1499 1497 1495 1493 1492 1491 1490 1490 1490 1489 1489 1489 1488 1488 1487 1487 1486 1485 1483 1483 1482 1482 1481 1478 1476 1478 1480 1480 1481 1481 1481 1482 1483 1484 1485 1485 1486 1485 1485 1485 1486 1486 1482 1483 1491 1495 1495 1490 1485 1482 1480 1482 1478 1478 1486 1490 1495 1501 1505 1506 1498 1494 1489 1489 1502 1508 1504 1506 1507 1507 1505 1502 1503 1505 1505 1507 1507 1508 1508 1509 1509 1510 1511 1511 1512
1506 1504 1501 1499 1497 1495 1493 1492 1490 1490 1489 1489 1489 1489 1488 1488 1489 1489 1486 1482 1480 1480 1480 1479 1479 1477 1474 1474 1475 1477 1480 1480 1480 1480 1481 1482 1483 1484 1484 1484 1485 1487 1485 1482 1485 1481 1484 1495 1492 1484 1480 1477 1475 1474 1475 1474 1474 1481 1489 1496 1501 1503 1500 1491 1489 1489 1487 1498 1506 1502 1506 1508 1505 1504 1502 1502 1505 1504 1504 1505 1506 1507 1507 1508 1509 1510 1511 1511
1506 1503 1501 1499 1496 1495 1493 1491 1490 1489 1489 1488 1488 1488 1488 1489 1490 1489 1487 1482 1477 1476 1476 1476 1477 1474 1471 1472 1473 1475 1479 1479 1478 1478 1479 1480 1482 1483 1482 1482 1485 1487 1483 1482 1488 1489 1493 1494 1483 1473 1472 1472 1473 1471 1471 1471 1471 1478 1487 1496 1502 1498 1495 1491 1488 1488 1488 1497 1504 1503 1506 1508 1504 1503 1502 1501 1501 1501 1501 1502 1503 1505 1506 1507 1508 1509 1510 1511
1505 1502 1500 1498 1496 1494 1492 1491 1490 1488 1488 1488 1487 1488 1488 1488 1488 1488 1488 1484 1476 1472 1472 1473 1473 1471 1469 1470 1471 1473 1476 1476 1476 1475 1477 1479 1479 1480 1481 1482 1485 1486 1485 1487 1492 1498 1499 1488 1471 1467 1468 1470 1473 1469 1468 1471 1471 1475 1484 1495 1500 1493 1494 1498 1493 1490 1491 1493 1500 1504 1508 1509 1507 1506 1504 1501 1501 1500 1501 1502 1501 1503 1504 1505 1506 1508 1509 1510
1503 1501 1500 1497 1495 1494 1491 1490 1489 1488 1488 1487 1488 1488 1487 1487 1487 1486 1485 1483 1477 1469 1466 1468 1469 1469 1466 1466 1469 1472 1472 1473 1473 1472 1475 1477 1476 1478 1480 1479 1484 1488 1486 1485 1487 1494 1492 1475 1464 1466 1467 1469 1471 1468 1467 1474 1476 1476 1479 1488 1492 1488 1489 1491 1489 1490 1494 1495 1496 1502 1515 1517 1511 1512 1510 1504 1504 1502 1501 1503 1503 1503 1503 1504 1506 1507 1508 1508
1502 1501 1498 1496 1495 1493 1491 1490 1488 1488 1488 1487 1488 1486 1486 1486 1485 1486 1484 1485 1482 1470 1463 1464 1465 1465 1463 1465 1469 1468 1469 1470 1470 1471 1472 1473 1475 1477 1478 1478 1483 1488 1485 1483 1485 1490 1484 1467 1463 1468 1468 1466 1469 1469 1468 1473 1479 1480 1476 1476 1479 1480 1482 1484 1486 1493 1503 1508 1499 1498 1522 1528 1514 1513 1513 1506 1506 1505 1502 1502 1502 1503 1503 1504 1505 1506 1507 1507
1501 1500 1497 1496 1494 1491 1491 1489 1488 1489 1487 1487 1487 1485 1486 1485 1485 1486 1484 1490 1489 1470 1462 1463 1462 1462 1460 1463 1466 1466 1472 1470 1466 1469 1471 1471 1473 1474 1478 1478 1478 1482 1480 1479 1483 1483 1474 1462 1461 1467 1467 1466 1469 1471 1467 1468 1481 1486 1474 1466 1469 1473 1479 1484 1486 1493 1505 1508 1495 1489 1513 1528 1519 1513 1511 1507 1508 1507 1503 1502 1501 1502 1503 1503 1503 1504 1505 1506
1500 1498 1496 1495 1492 1491 1490 1488 1488 1488 1486 1487 1485 1485 1487 1484 1486 1484 1486 1503 1495 1465 1459 1462 1460 1460 1458 1460 1462 1467 1476 1470 1464 1467 1467 1469 1471 1471 1478 1479 1477 1478 1473 1477 1486 1478 1467 1465 1464 1464 1466 1468 1472 1473 1466 1465 1481 1484 1466 1461 1468 1471 1477 1483 1485 1490 1493 1493 1494 1490 1499 1518 1522 1514 1508 1507 1509 1509 1504 1502 1501 1500 1501 1501 1501 1502 1503 1504
1499 1497 1494 1493 1492 1490 1488 1488 1488 1486 1486 1486 1484 1486 1485 1484 1486 1483 1493 1513 1489 1455 1456 1459 1456 1458 1457 1459 1461 1463 1466 1463 1465 1468 1464 1468 1470 1469 1475 1475 1476 1477 1470 1480 1492 1475 1463 1469 1467 1464 1468 1471 1471 1467 1461 1463 1475 1473 1459 1459 1464 1465 1470 1476 1481 1488 1487 1492 1505 1501 1496 1514 1524 1512 1506 1508 1510 1511 1506 1501 1500 1498 1499 1499 1499 1501 1501 1503
1497 1495 1493 1491 1490 1489 1487 1487 1486 1485 1486 1485 1485 1486 1484 1485 1485 1483 1500 1506 1471 1450 1456 1456 1455 1458 1455 1458 1460 1459 1459 1460 1464 1464 1461 1466 1468 1468 1472 1471 1472 1476 1472 1477 1485 1473 1463 1465 1462 1462 1469 1469 1465 1460 1456 1461 1467 1461 1455 1458 1461 1463 1466 1469 1478 1484 1487 1496 1507 1502 1495 1512 1525 1513 1510 1515 1512 1507 1502 1497 1497 1496 1497 1498 1497 1499 1501 1502
1496 1494 1491 1489 1488 1487 1486 1485 1484 1484 1484 1484 1485 1485 1484 1486 1487 1496 1512 1495 1462 1455 1456 1454 1456 1456 1456 1461 1461 1458 1458 1460 1460 1460 1462 1464 1465 1466 1468 1468 1469 1474 1475 1474 1476 1470 1461 1457 1457 1458 1462 1459 1456 1455 1453 1456 1458 1454 1456 1462 1465 1468 1468 1471 1476 1480 1493 1501 1496 1493 1491 1502 1521 1518 1509 1506 1497 1491 1494 1496 1497 1495 1496 1497 1497 1498 1500 1501
1493 1492 1490 1487 1486 1485 1484 1483 1483 1483 1483 1483 1485 1485 1485 1487 1491 1508 1508 1476 1458 1460 1455 1455 1457 1452 1456 1461 1462 1460 1459 1460 1458 1460 1465 1465 1466 1468 1469 1472 1473 1477 1482 1479 1475 1469 1461 1460 1458 1454 1452 1450 1452 1455 1452 1451 1452 1455 1463 1469 1476 1481 1479 1483 1485 1485 1503 1506 1486 1483 1486 1491 1512 1513 1498 1491 1483 1481 1488 1492 1493 1493 1495 1496 1496 1497 1498 1500
1490 1489 1487 1485 1484 1483 1482 1482 1481 1482 1482 1483 1484 1484 1487 1495 1502 1506 1490 1465 1464 1465 1456 1457 1456 1452 1456 1458 1461 1461 1459 1462 1459 1460 1465 1466 1470 1471 1471 1475 1477 1484 1492 1487 1480 1474 1467 1463 1457 1452 1448 1447 1454 1462 1459 1454 1454 1460 1467 1474 1487 1497 1498 1503 1502 1499 1506 1499 1480 1480 1485 1491 1501 1494 1483 1484 1482 1481 1483 1484 1487 1489 1492 1494 1494 1496 1498 1499
1487 1485 1484 1483 1481 1480 1480 1480 1480 1481 1482 1482 1485 1483 1489 1505 1506 1491 1478 1471 1468 1460 1454 1456 1453 1452 1457 1460 1462 1459 1459 1463 1460 1460 1462 1463 1470 1471 1469 1469 1468 1480 1489 1484 1483 1483 1476 1465 1455 1456 1453 1445 1451 1464 1470 1467 1463 1466 1471 1478 1492 1503 1511 1517 1511 1507 1505 1493 1480 1478 1483 1495 1499 1485 1477 1478 1479 1479 1480 1482 1485 1486 1489 1492 1493 1496 1498 1499
1484 1482 1480 1479 1478 1478 1478 1478 1478 1479 1481 1482 1484 1486 1495 1508 1497 1478 1476 1474 1465 1456 1453 1454 1454 1455 1457 1460 1460 1456 1460 1465 1458 1460 1464 1465 1473 1474 1470 1468 1464 1470 1478 1482 1484 1484 1488 1481 1461 1457 1456 1447 1448 1455 1460 1462 1464 1466 1464 1472 1485 1491 1501 1510 1506 1506 1504 1493 1486 1485 1491 1503 1502 1487 1476 1473 1475 1478 1481 1483 1485 1486 1489 1491 1494 1496 1497 1498
1481 1479 1477 1475 1476 1476 1475 1476 1476 1477 1481 1481 1483 1491 1500 1500 1486 1477 1475 1469 1461 1459 1456 1453 1454 1460 1462 1459 1456 1451 1457 1464 1459 1461 1466 1467 1472 1472 1468 1467 1463 1465 1475 1485 1484 1478 1486 1483 1457 1446 1446 1444 1449 1447 1444 1455 1468 1467 1461 1470 1481 1478 1481 1492 1493 1492 1492 1494 1498 1499 1501 1500 1492 1483 1474 1472 1477 1479 1481 1484 1486 1489 1490 1492 1494 1495 1495 1497
1478 1476 1475 1473 1474 1474 1473 1474 1474 1476 1479 1480 1486 1494 1494 1485 1477 1474 1469 1463 1462 1462 1462 1459 1455 1462 1467 1462 1458 1453 1452 1457 1459 1463 1466 1466 1466 1465 1462 1460 1458 1460 1468 1479 1481 1477 1483 1476 1450 1443 1444 1440 1445 1445 1441 1454 1467 1467 1467 1474 1471 1462 1468 1483 1490 1485 1485 1500 1509 1506 1505 1500 1491 1488 1481 1477 1481 1482 1483 1486 1486 1489 1490 1491 1493 1493 1494 1496
1475 1473 1472 1471 1471 1471 1472 1472 1473 1476 1478 1480 1487 1490 1483 1475 1469 1467 1464 1462 1462 1461 1467 1471 1462 1460 1467 1465 1462 1457 1453 1457 1460 1463 1467 1467 1464 1460 1457 1454 1451 1453 1457 1465 1472 1470 1476 1475 1452 1445 1452 1444 1438 1442 1442 1442 1451 1463 1472 1468 1459 1458 1464 1475 1489 1493 1494 1507 1512 1507 1508 1506 1502 1501 1491 1484 1487 1487 1486 1486 1486 1489 1490 1491 1492 1492 1494 1495
1473 1471 1470 1469 1470 1470 1470 1471 1473 1475 1477 1480 1486 1483 1477 1472 1466 1463 1463 1462 1462 1462 1469 1474 1464 1456 1461 1465 1461 1455 1455 1462 1463 1462 1465 1467 1462 1452 1451 1453 1447 1446 1446 1454 1465 1462 1466 1477 1461 1445 1452 1448 1437 1445 1453 1445 1441 1451 1458 1454 1459 1475 1479 1478 1488 1498 1502 1510 1515 1514 1510 1506 1504 1501 1494 1490 1490 1488 1487 1486 1487 1488 1488 1489 1490 1491 1493 1494
1473 1471 1469 1469 1469 1470 1470 1471 1473 1475 1478 1483 1486 1482 1474 1470 1463 1461 1463 1462 1462 1465 1467 1467 1459 1454 1455 1458 1458 1454 1454 1459 1462 1462 1463 1465 1460 1447 1443 1447 1444 1442 1442 1447 1459 1458 1459 1474 1471 1451 1446 1447 1445 1453 1464 1460 1448 1446 1451 1453 1459 1471 1479 1480 1484 1490 1496 1507 1518 1523 1518 1508 1499 1493 1489 1489 1486 1485 1486 1486 1486 1486 1487 1488 1489 1490 1492 1493
1474 1471 1470 1469 1470 1470 1470 1472 1473 1476 1479 1481 1482 1478 1471 1468 1462 1458 1460 1461 1460 1462 1463 1459 1455 1456 1454 1452 1453 1453 1453 1455 1456 1458 1458 1458 1456 1447 1439 1440 1440 1439 1440 1443 1451 1455 1457 1469 1474 1460 1448 1453 1460 1459 1460 1461 1458 1457 1463 1467 1466 1467 1471 1476 1480 1482 1488 1500 1514 1524 1524 1508 1490 1482 1484 1485 1482 1481 1483 1484 1484 1485 1486 1487 1488 1489 1491 1493
1474 1473 1471 1470 1471 1470 1471 1473 1474 1476 1478 1478 1476 1473 1469 1466 1461 1456 1456 1457 1457 1455 1455 1452 1451 1453 1451 1451 1452 1449 1450 1453 1452 1453 1453 1451 1452 1449 1438 1433 1435 1436 1441 1447 1450 1453 1458 1464 1471 1469 1462 1465 1465 1453 1448 1451 1452 1455 1464 1467 1468 1469 1473 1483 1490 1486 1483 1491 1501 1511 1518 1506 1484 1476 1478 1479 1479 1479 1479 1481 1483 1484 1486 1488 1488 1489 1491 1493
1475 1474 1472 1471 1472 1471 1471 1474 1474 1475 1476 1475 1472 1469 1466 1464 1459 1455 1452 1453 1453 1450 1448 1446 1446 1446 1446 1448 1448 1445 1447 1451 1450 1449 1448 1444 1444 1442 1431 1426 1429 1431 1438 1447 1447 1444 1447 1456 1466 1471 1468 1464 1457 1446 1444 1446 1444 1448 1455 1459 1460 1465 1472 1484 1494 1489 1484 1488 1491 1497 1509 1501 1480 1473 1474 1474 1475 1477 1478 1480 1481 1484 1486 1487 1489 1490 1492 1493
1475 1474 1472 1472 1473 1471 1472 1474 1475 1474 1473 1471 1468 1465 1464 1462 1458 1455 1452 1451 1450 1448 1446 1444 1442 1443 1443 1442 1443 1444 1444 1446 1446 1443 1441 1439 1435 1430 1424 1423 1427 1430 1434 1441 1444 1440 1443 1456 1467 1471 1467 1458 1451 1445 1443 1443 1446 1453 1456 1454 1457 1462 1465 1471 1478 1480 1483 1489 1490 1498 1510 1501 1479 1471 1472 1472 1473 1476 1478 1479 1481 1484 1486 1487 1489 1490 1491 1493
1474 1472 1471 1471 1472 1472 1474 1475 1475 1475 1472 1469 1466 1463 1461 1458 1455 1454 1452 1450 1448 1446 1446 1444 1439 1439 1440 1438 1440 1441 1441 1444 1443 1436 1435 1438 1432 1425 1423 1422 1424 1428 1431 1436 1439 1440 1449 1462 1468 1475 1480 1474 1468 1466 1460 1453 1454 1460 1460 1455 1455 1459 1461 1466 1470 1474 1482 1487 1486 1496 1507 1498 1479 1472 1473 1473 1474 1477 1479 1480 1481 1484 1485 1487 1489 1489 1490 1491
1474 1472 1470 1470 1471 1471 1471 1471 1471 1473 1471 1469 1467 1463 1459 1455 1451 1450 1448 1445 1443 1442 1444 1442 1437 1436 1436 1437 1439 1437 1435 1440 1441 1434 1432 1435 1431 1425 1424 1423 1421 1423 1426 1430 1431 1435 1450 1461 1464 1475 1490 1492 1490 1487 1478 1469 1463 1462 1460 1456 1456 1459 1462 1467 1472 1478 1485 1486 1483 1489 1496 1491 1480 1476 1476 1476 1477 1480 1481 1482 1482 1483 1484 1486 1487 1488 1489 1490
1477 1475 1472 1471 1470 1470 1470 1469 1469 1471 1470 1471 1469 1462 1458 1455 1449 1445 1443 1442 1439 1437 1438 1437 1433 1434 1436 1438 1441 1440 1434 1434 1436 1433 1432 1434 1432 1427 1426 1425 1423 1425 1427 1428 1428 1434 1448 1458 1460 1468 1478 1481 1481 1476 1468 1466 1468 1467 1464 1460 1460 1461 1461 1466 1475 1481 1482 1482 1483 1484 1484 1486 1484 1480 1480 1479 1478 1480 1481 1481 1482 1483 1484 1486 1486 1488 1489 1489
1480 1479 1477 1476 1474 1472 1471 1469 1470 1471 1469 1471 1470 1462 1457 1456 1451 1446 1442 1440 1437 1435 1435 1434 1432 1436 1440 1440 1444 1444 1439 1435 1434 1434 1434 1433 1431 1428 1426 1425 1427 1429 1429 1429 1430 1436 1450 1459 1459 1462 1466 1466 1467 1465 1461 1463 1467 1468 1467 1464 1463 1462 1462 1468 1474 1476 1475 1481 1487 1482 1478 1483 1484 1480 1481 1480 1478 1479 1479 1479 1481 1482 1483 1485 1485 1487 1488 1488
1481 1480 1479 1480 1480 1477 1475 1472 1471 1470 1468 1467 1466 1461 1458 1457 1454 1451 1445 1439 1435 1435 1438 1439 1435 1436 1438 1438 1443 1444 1442 1441 1439 1435 1435 1434 1431 1431 1431 1428 1428 1429 1430 1431 1432 1436 1450 1461 1457 1457 1462 1461 1460 1461 1460 1461 1464 1465 1465 1465 1462 1461 1464 1468 1470 1469 1469 1476 1480 1478 1477 1480 1479 1477 1478 1476 1474 1476 1477 1478 1479 1480 1482 1483 1485 1486 1486 1487
1481 1480 1479 1479 1479 1478 1477 1474 1471 1470 1468 1466 1464 1461 1459 1457 1455 1452 1447 1443 1440 1436 1439 1444 1441 1436 1435 1435 1439 1444 1444 1445 1445 1438 1434 1433 1433 1434 1437 1437 1433 1429 1429 1434 1436 1436 1448 1459 1456 1456 1462 1461 1459 1459 1458 1459 1463 1463 1463 1462 1462 1462 1462 1464 1465 1463 1464 1469 1471 1473 1478 1478 1474 1473 1473 1471 1472 1474 1475 1477 1479 1480 1481 1482 1483 1484 1484 1484
1482 1482 1480 1479 1478 1476 1475 1473 1471 1471 1468 1466 1465 1461 1458 1457 1455 1452 1447 1449 1450 1442 1439 1445 1443 1438 1436 1435 1437 1441 1438 1437 1440 1436 1430 1432 1433 1433 1438 1440 1436 1431 1432 1437 1440 1439 1447 1458 1456 1455 1464 1466 1460 1458 1459 1462 1465 1465 1464 1462 1461 1461 1461 1462 1462 1461 1464 1472 1473 1473 1480 1480 1473 1469 1469 1471 1473 1473 1475 1477 1478 1478 1480 1481 1481 1482 1482 1482
1483 1483 1482 1482 1479 1475 1474 1473 1472 1472 1469 1466 1465 1462 1458 1457 1455 1452 1448 1445 1447 1446 1443 1444 1443 1439 1437 1437 1437 1436 1430 1427 1429 1426 1421 1424 1427 1428 1432 1434 1434 1435 1437 1440 1442 1442 1447 1457 1456 1457 1469 1471 1462 1461 1464 1464 1465 1468 1467 1464 1462 1463 1464 1465 1464 1461 1465 1474 1477 1478 1483 1482 1473 1469 1471 1472 1472 1473 1475 1475 1476 1477 1478 1479 1479 1479 1479 1479
1483 1483 1482 1483 1481 1477 1476 1474 1472 1473 1471 1467 1465 1462 1460 1457 1452 1451 1451 1445 1440 1441 1441 1440 1441 1440 1441 1440 1437 1431 1426 1424 1423 1421 1418 1417 1418 1420 1424 1427 1428 1433 1438 1441 1445 1446 1448 1455 1458 1462 1473 1473 1465 1464 1466 1467 1475 1479 1471 1465 1464 1464 1465 1466 1465 1463 1463 1469 1476 1480 1479 1474 1469 1471 1474 1474 1473 1473 1473 1473 1474 1476 1476 1477 1477 1477 1477 1477